Flag for Gambia Weather past 2 weeks in Banjul, Gambia

Now
73 °F

Partly cloudy.


Feels Like: 68 °F
Forecast: 79 / 87 °F
Wind: 9 mph from Northeast

Location: Banjul / Yundum

Current Time: Sep 4, 2015 at 2:37:28 AM

Latest Report: Sep 4, 2015 at 2:00 AM


Visibility: N/A

Pressure: 29.89 "Hg

Humidity: 100%

Dew point: 73 °F

Location of BanjulLocation

Historic Weather in Banjul — Graph

°F

Banjul temperature yesterday

Maximum temperature yesterday: 90 °F (at 3:00 PM)
Minimum temperature yesterday: 75 °F (at 11:00 PM)
Average temperature yesterday: 81 °F

Past Weeks' High & Low Weather Summary

 TemperatureHumidityPressure
High90 °F (Aug 24, 1:00 PM)100% (Aug 20, 1:00 AM)32.87 "Hg (Aug 20, 1:00 AM)
Low70 °F (Aug 25, 6:00 PM)26% (Aug 30, 7:00 PM)29.74 "Hg (Aug 29, 4:00 PM)
Average80 °F87%29.87 "Hg
* Reported Aug 20 1:00 AM — Sep 4 1:00 AM, Banjul, Weather by CustomWeather, © 2015

Note: Actual official high and low records may vary slightly from our data, if they occured in-between our weather recording intervals... More about our weather records

Advertising

Banjul weather history for previous 24 hours

 ConditionsComfort  
Time TempWeatherWind HumidityBarometerVisibility
1:00 AM
Fri, Sep 4
73 °FPartly cloudy.No wind100%29.92 "HgN/A
12:00 AM73 °FThunderstorms. Partly cloudy.7 mph100%29.92 "Hg6 mi
11:00 PM
Thu, Sep 3
75 °FThunderstorms. Passing clouds.14 mph94%29.92 "Hg6 mi
10:00 PM81 °FThunderstorms. Partly cloudy.12 mph94%29.86 "Hg6 mi
9:00 PM81 °FThunderstorms. Partly cloudy.No wind94%29.86 "Hg6 mi
8:00 PM79 °FThunderstorms. Partly cloudy.No wind94%29.86 "HgN/A
7:00 PM79 °FThunderstorms. Broken clouds.No wind94%29.89 "HgN/A
6:00 PM77 °FThunderstorms. Scattered clouds.No wind100%29.89 "HgN/A
5:00 PM77 °FThunderstorms. Broken clouds.6 mph100%29.86 "Hg6 mi
4:00 PM86 °FThunderstorms. Broken clouds.14 mph79%29.86 "HgN/A
3:42 PM88 °FThunderstorms. Broken clouds.8 mph75%29.89 "HgN/A
3:00 PM90 °FThunderstorms. Broken clouds.8 mph75%29.86 "HgN/A
2:00 PM88 °FPartly sunny.8 mph75%29.89 "HgN/A
1:00 PM86 °FPartly sunny.10 mph79%29.86 "HgN/A
12:00 PM86 °FPartly sunny.7 mph79%29.89 "HgN/A
11:00 AM86 °FPartly sunny.No wind79%29.89 "HgN/A
10:00 AM84 °FScattered clouds.7 mph79%29.89 "HgN/A
9:00 AM82 °FBroken clouds.No wind84%29.89 "HgN/A
8:00 AM79 °FPartly sunny.No wind94%29.86 "HgN/A
7:00 AM77 °FPartly sunny.No wind94%29.86 "HgN/A
6:00 AM77 °FPassing clouds.No wind100%29.86 "HgN/A
5:00 AM79 °FPassing clouds.No wind89%29.86 "HgN/A
4:00 AM79 °FPassing clouds.No wind94%29.86 "HgN/A
3:00 AM81 °FPassing clouds.No wind89%29.89 "HgN/A
2:00 AM81 °FPassing clouds.No wind89%29.89 "HgN/A
Weather by CustomWeather, © 2015

See weather overviewHow to use our weather pages